NDF4MA LGRP-LGLM

Flight info

Callsign NDF4MA
Flight time N/A
Altitude 32000
Route CODIC1Y CODIC UL995 AKINA UN133 KOROS KOROS1D
Aircraft A321/M-SDE3FGHIRWY/LB1

Departure

Time 2026-05-05 06:44
Airport Rhodes International Airport "Diagoras" (LGRP)

Arrival

Time N/A
Airport Limnos Airport (LGLM)
Time Latitude Longitude Altitude Speed Heading
2026-05-05 06:27 36.40461 28.09100 24 ft 0 kts 345°
2026-05-05 06:39 36.40475 28.09119 24 ft 8 kts 52°
2026-05-05 06:39 36.40505 28.09184 24 ft 10 kts 67°
2026-05-05 06:39 36.40535 28.09275 24 ft 12 kts 67°
2026-05-05 06:40 36.40572 28.09385 26 ft 16 kts 68°
2026-05-05 06:40 36.40615 28.09512 24 ft 15 kts 69°
2026-05-05 06:40 36.40653 28.09643 24 ft 20 kts 70°
2026-05-05 06:40 36.40700 28.09804 24 ft 20 kts 70°
2026-05-05 06:41 36.40746 28.09960 24 ft 19 kts 70°
2026-05-05 06:41 36.40791 28.10110 25 ft 18 kts 70°
2026-05-05 06:41 36.40832 28.10255 24 ft 17 kts 70°
2026-05-05 06:41 36.40871 28.10390 26 ft 14 kts 68°
2026-05-05 06:42 36.40948 28.10423 23 ft 8 kts 338°
2026-05-05 06:42 36.40950 28.10423 23 ft 0 kts 337°
2026-05-05 06:42 36.40953 28.10421 23 ft 4 kts 335°
2026-05-05 06:43 36.40994 28.10372 22 ft 10 kts 310°
2026-05-05 06:43 36.41026 28.10296 22 ft 9 kts 277°
2026-05-05 06:43 36.41007 28.10219 23 ft 13 kts 249°
2026-05-05 06:43 36.40898 28.09848 22 ft 80 kts 250°
2026-05-05 06:44 36.40641 28.08969 25 ft 134 kts 250°
2026-05-05 06:44 36.40295 28.07716 125 ft 165 kts 252°
2026-05-05 06:44 36.39985 28.06376 737 ft 161 kts 259°
2026-05-05 06:44 36.39839 28.04999 1280 ft 161 kts 265°
2026-05-05 06:45 36.39732 28.03606 1746 ft 166 kts 265°
2026-05-05 06:45 36.39622 28.02098 1964 ft 186 kts 265°
2026-05-05 06:45 36.39498 28.00395 2104 ft 210 kts 265°
2026-05-05 06:45 36.39355 27.98478 2325 ft 236 kts 265°
2026-05-05 06:46 36.39190 27.96355 2723 ft 256 kts 265°
2026-05-05 06:46 36.39012 27.94121 3456 ft 263 kts 265°
2026-05-05 06:46 36.38833 27.91851 4292 ft 266 kts 264°
2026-05-05 06:46 36.38652 27.89556 5107 ft 269 kts 264°
2026-05-05 06:47 36.38667 27.87215 5871 ft 275 kts 279°
2026-05-05 06:47 36.39214 27.84935 6607 ft 279 kts 295°
2026-05-05 06:47 36.40275 27.82905 7355 ft 283 kts 309°
2026-05-05 06:47 36.41518 27.80992 8117 ft 286 kts 309°
2026-05-05 06:48 36.42768 27.79050 8862 ft 289 kts 308°
2026-05-05 06:48 36.44028 27.77087 9613 ft 292 kts 308°
2026-05-05 06:48 36.45295 27.75109 10306 ft 298 kts 308°
2026-05-05 06:48 36.46538 27.72936 10477 ft 320 kts 300°
2026-05-05 06:49 36.47544 27.70362 10611 ft 342 kts 292°
2026-05-05 06:49 36.48516 27.67594 11018 ft 354 kts 293°
2026-05-05 06:49 36.49513 27.64778 11666 ft 358 kts 293°
2026-05-05 06:49 36.50521 27.61944 12355 ft 360 kts 294°
2026-05-05 06:50 36.51538 27.59088 13049 ft 362 kts 294°
2026-05-05 06:50 36.52561 27.56212 13716 ft 365 kts 294°
2026-05-05 06:50 36.53593 27.53312 14370 ft 368 kts 294°
2026-05-05 06:50 36.54628 27.50392 14987 ft 371 kts 293°
2026-05-05 06:51 36.55656 27.47484 15577 ft 374 kts 293°
2026-05-05 06:51 36.56705 27.44516 16156 ft 377 kts 293°
2026-05-05 06:51 36.57764 27.41517 16728 ft 380 kts 293°
2026-05-05 06:51 36.58827 27.38494 17269 ft 383 kts 293°
2026-05-05 06:52 36.59893 27.35450 17806 ft 386 kts 293°
2026-05-05 06:52 36.60968 27.32385 18355 ft 387 kts 293°
2026-05-05 06:52 36.62045 27.29309 18933 ft 388 kts 293°
2026-05-05 06:52 36.63125 27.26227 19448 ft 390 kts 293°
2026-05-05 06:53 36.64215 27.23128 19956 ft 391 kts 293°
2026-05-05 06:53 36.65308 27.20017 20450 ft 393 kts 293°
2026-05-05 06:53 36.66404 27.16887 20929 ft 395 kts 293°
2026-05-05 06:53 36.67504 27.13736 21370 ft 398 kts 293°
2026-05-05 06:54 36.68612 27.10562 21797 ft 401 kts 293°
2026-05-05 06:54 36.69728 27.07363 22213 ft 404 kts 293°
2026-05-05 06:54 36.70849 27.04144 22674 ft 406 kts 293°
2026-05-05 06:54 36.71971 27.00909 23088 ft 408 kts 293°
2026-05-05 06:55 36.72717 26.98755 23368 ft 409 kts 293°
2026-05-05 06:55 36.73847 26.95485 23765 ft 412 kts 293°
2026-05-05 06:55 36.74987 26.92192 24178 ft 414 kts 293°
2026-05-05 06:55 36.76124 26.88902 24641 ft 414 kts 293°
2026-05-05 06:56 36.77262 26.85607 25108 ft 413 kts 294°
2026-05-05 06:56 36.78398 26.82313 25513 ft 415 kts 293°
2026-05-05 06:56 36.79541 26.79003 25895 ft 416 kts 294°
2026-05-05 06:56 36.80684 26.75690 26263 ft 417 kts 294°
2026-05-05 06:57 36.81837 26.72348 26559 ft 420 kts 294°
2026-05-05 06:57 36.82991 26.68994 26923 ft 421 kts 293°
2026-05-05 06:57 36.84152 26.65618 27193 ft 424 kts 294°
2026-05-05 06:57 36.85315 26.62231 27556 ft 425 kts 294°
2026-05-05 06:58 36.86482 26.58830 27818 ft 427 kts 293°
2026-05-05 06:58 36.87653 26.55412 28149 ft 428 kts 294°
2026-05-05 06:58 36.88825 26.51982 28413 ft 431 kts 294°
2026-05-05 06:58 36.90001 26.48536 28719 ft 432 kts 293°
2026-05-05 06:59 36.91183 26.45067 28971 ft 435 kts 293°
2026-05-05 06:59 36.92366 26.41590 29267 ft 435 kts 293°
2026-05-05 06:59 36.93548 26.38102 29600 ft 435 kts 293°
2026-05-05 06:59 36.94726 26.34619 29928 ft 435 kts 293°
2026-05-05 07:00 36.95930 26.31145 30200 ft 437 kts 296°
2026-05-05 07:00 36.97505 26.27894 30455 ft 439 kts 306°
2026-05-05 07:00 36.99537 26.25035 30766 ft 441 kts 316°
2026-05-05 07:00 37.01948 26.22669 31096 ft 442 kts 325°
2026-05-05 07:01 37.04658 26.20834 31435 ft 444 kts 332°
2026-05-05 07:01 37.07430 26.19148 31775 ft 443 kts 332°
2026-05-05 07:01 37.10198 26.17458 31972 ft 442 kts 332°
2026-05-05 07:02 37.15640 26.14127 32008 ft 431 kts 331°
2026-05-05 07:02 37.21013 26.10829 32009 ft 429 kts 331°
2026-05-05 07:03 37.26376 26.07535 32009 ft 429 kts 331°
2026-05-05 07:03 37.31740 26.04249 32009 ft 429 kts 331°
2026-05-05 07:04 37.37105 26.00960 32007 ft 429 kts 331°
2026-05-05 07:04 37.42459 25.97658 32005 ft 429 kts 331°
2026-05-05 07:05 37.47810 25.94347 32001 ft 428 kts 331°
2026-05-05 07:05 37.53158 25.91040 31999 ft 428 kts 331°
2026-05-05 07:06 37.58508 25.87727 31998 ft 428 kts 331°
2026-05-05 07:06 37.63854 25.84404 31998 ft 428 kts 331°
2026-05-05 07:07 37.69165 25.81103 31997 ft 428 kts 331°
2026-05-05 07:07 37.74511 25.77775 31997 ft 428 kts 331°
2026-05-05 07:08 37.79858 25.74447 31998 ft 429 kts 331°
2026-05-05 07:08 37.85208 25.71110 32000 ft 429 kts 331°
2026-05-05 07:09 37.90551 25.67760 32000 ft 428 kts 331°
2026-05-05 07:09 37.95893 25.64407 32000 ft 428 kts 331°
2026-05-05 07:10 38.01237 25.61050 32001 ft 429 kts 331°
2026-05-05 07:10 38.06582 25.57697 32001 ft 429 kts 331°
2026-05-05 07:11 38.11928 25.54332 31999 ft 429 kts 331°
2026-05-05 07:11 38.17277 25.50957 32000 ft 429 kts 331°
2026-05-05 07:12 38.22631 25.47580 32002 ft 430 kts 331°
2026-05-05 07:12 38.27988 25.44190 32005 ft 430 kts 331°
2026-05-05 07:13 38.33346 25.40793 32009 ft 430 kts 331°
2026-05-05 07:13 38.38703 25.37392 32010 ft 430 kts 331°
2026-05-05 07:14 38.44064 25.33989 32011 ft 430 kts 331°
2026-05-05 07:14 38.46743 25.32284 31887 ft 431 kts 331°
2026-05-05 07:14 38.49426 25.30576 31636 ft 431 kts 331°
2026-05-05 07:14 38.52108 25.28865 31387 ft 431 kts 331°
2026-05-05 07:15 38.54787 25.27151 31137 ft 431 kts 331°
2026-05-05 07:15 38.57435 25.25455 30828 ft 429 kts 331°
2026-05-05 07:15 38.60096 25.23754 30236 ft 427 kts 331°
2026-05-05 07:15 38.62740 25.22060 29655 ft 424 kts 330°
2026-05-05 07:16 38.65366 25.20377 29054 ft 421 kts 330°
2026-05-05 07:16 38.67978 25.18701 28459 ft 419 kts 330°
2026-05-05 07:16 38.70574 25.17033 27863 ft 416 kts 330°
2026-05-05 07:16 38.73148 25.15378 27282 ft 413 kts 330°
2026-05-05 07:17 38.75707 25.13732 26702 ft 410 kts 330°
2026-05-05 07:17 38.78248 25.12100 26136 ft 407 kts 330°
2026-05-05 07:17 38.80766 25.10483 25575 ft 404 kts 330°
2026-05-05 07:17 38.83271 25.08874 25018 ft 401 kts 331°
2026-05-05 07:18 38.85749 25.07279 24467 ft 397 kts 331°
2026-05-05 07:18 38.88209 25.05694 23921 ft 394 kts 331°
2026-05-05 07:18 38.90649 25.04119 23388 ft 391 kts 332°
2026-05-05 07:18 38.93063 25.02558 22866 ft 387 kts 332°
2026-05-05 07:19 38.95459 25.01008 22372 ft 383 kts 332°
2026-05-05 07:19 38.97824 24.99476 21895 ft 379 kts 332°
2026-05-05 07:19 39.00164 24.97961 21432 ft 375 kts 332°